Weather History for KELP - May, 2014

Change the Weather History Date:

Wednesday, May 21, 2014

  Actual Average Record
Temperature  
Mean Temperature 79 °F 75 °F  
Max Temperature 94 °F 89 °F 101 °F (2005)
Min Temperature 64 °F 62 °F 42 °F (1974)
Degree Days  
Heating Degree Days 0 0  
Month to date heating degree days 23 6  
Since 1 July heating degree days 2049 2471  
Cooling Degree Days 14 11  
Month to date cooling degree days 158 164  
Year to date cooling degree days 284 256  
Growing Degree Days 28 (Base 50)    
Moisture  
Dew Point 18 °F    
Average Humidity 11    
Maximum Humidity 16    
Minimum Humidity 5    
Precipitation  
Precipitation 0.00 in 0.02 in 2.04 in (1895)
Month to date precipitation 0.00 0.30  
Year to date precipitation 0.63 1.65  
Snow  
Snow 0.00 in - - ()
Month to date snowfall 0.0  
Since 1 July snowfall T  
Snow Depth 0.00 in    
Sea Level Pressure  
Sea Level Pressure 29.77 in    
Wind  
Wind Speed 10 mph (SW)    
Max Wind Speed 24 mph    
Max Gust Speed 35 mph    
Visibility 10 miles    
Events      
T = Trace of Precipitation, MM = Missing Value Source: NWS Daily Summary

Daily Weather History Graph

Daily Weather History Graph

Search for Another Location

Airport or City:

Trip Planner

Search our weather history database for the weather conditions in past years. The results will help you decide how hot, cold, wet, or windy it might be!

Date:

Astronomy

May. 21, 2014 Rise Set
Actual Time 6:04 AM MDT 7:59 PM MDT
Civil Twilight 5:37 AM MDT 8:26 PM MDT
Nautical Twilight 5:04 AM MDT 8:59 PM MDT
Astronomical Twilight 4:30 AM MDT 9:34 PM MDT
Moon 1:21 AM MDT (5/21) 1:09 PM MDT (5/21)
Length of Visible Light 14h 49m
Length of Day
13h 54m
Waning Gibbous, 48% of the Moon is Illuminated
May 21
Waning Gibbous
May 28
New
Jun 5
First Quarter
Jun 12
Full
Jun 19
Last Quarter

Hourly Weather History & Observations

Time (MDT) Temp. Dew Point Humidity Pressure Visibility Wind Dir Wind Speed Gust Speed Precip Events Conditions
12:51 AM 73.4 °F 17.6 °F 12% 29.95 in 10.0 mi South 4.6 mph - N/A   Scattered Clouds
1:51 AM 72.0 °F 16.0 °F 12% 29.72 in 10.0 mi SSW 5.8 mph - N/A   Scattered Clouds
2:51 AM 73.0 °F 12.9 °F 10% 29.73 in 10.0 mi SSW 5.8 mph - N/A   Scattered Clouds
3:51 AM 64.0 °F 14.0 °F 14% 29.76 in 10.0 mi East 5.8 mph - N/A   Mostly Cloudy
4:51 AM 66.0 °F 19.0 °F 17% 29.77 in 10.0 mi SE 8.1 mph - N/A   Scattered Clouds
5:51 AM 64.0 °F 15.1 °F 15% 29.77 in 10.0 mi ENE 3.5 mph - N/A   Mostly Cloudy
6:51 AM 66.0 °F 18.0 °F 16% 29.79 in 10.0 mi Calm Calm - N/A   Mostly Cloudy
7:51 AM 73.9 °F 21.0 °F 14% 29.80 in 10.0 mi SW 5.8 mph - N/A   Mostly Cloudy
8:51 AM 77.0 °F 21.0 °F 12% 29.82 in 10.0 mi East 3.5 mph - N/A   Mostly Cloudy
9:51 AM 84.0 °F 19.0 °F 9% 29.80 in 10.0 mi North 5.8 mph - N/A   Scattered Clouds
10:51 AM 84.2 °F 19.4 °F 9% 30.02 in 10.0 mi Calm Calm - N/A   Partly Cloudy
11:51 AM 87.8 °F 23.0 °F 9% 30.01 in 10.0 mi WSW 13.8 mph 18.4 mph N/A   Partly Cloudy
12:51 PM 91.0 °F 24.1 °F 9% 29.76 in 10.0 mi SSW 8.1 mph 17.3 mph N/A   Partly Cloudy
1:51 PM 91.9 °F 24.1 °F 9% 29.74 in 10.0 mi South 15.0 mph 23.0 mph N/A   Partly Cloudy
2:51 PM 93.2 °F 17.6 °F 6% 29.95 in 10.0 mi SW 13.8 mph 26.5 mph N/A   Partly Cloudy
3:51 PM 93.0 °F 16.0 °F 6% 29.72 in 10.0 mi SSW 11.5 mph - N/A   Partly Cloudy
4:51 PM 91.9 °F 14.0 °F 6% 29.70 in 10.0 mi SSW 13.8 mph 27.6 mph N/A   Partly Cloudy
5:51 PM 91.9 °F 12.9 °F 5% 29.69 in 10.0 mi SW 11.5 mph - N/A   Partly Cloudy
6:51 PM 90.0 °F 14.0 °F 6% 29.68 in 10.0 mi South 15.0 mph 20.7 mph N/A   Partly Cloudy
7:51 PM 88.0 °F 16.0 °F 7% 29.68 in 10.0 mi West 9.2 mph - N/A   Partly Cloudy
8:51 PM 86.0 °F 16.0 °F 7% 29.68 in 10.0 mi West 16.1 mph 21.9 mph N/A   Partly Cloudy
9:51 PM 84.0 °F 17.1 °F 8% 29.70 in 10.0 mi West 18.4 mph - N/A   Clear
10:51 PM 82.9 °F 21.9 °F 11% 29.72 in 10.0 mi West 17.3 mph - N/A   Clear
11:51 PM 81.0 °F 26.1 °F 13% 29.73 in 10.0 mi West 20.7 mph 27.6 mph N/A   Partly Cloudy